[[{"header":{"parameterUnit":"m.s-1","parameterCategory":1,"la1":30.2991,"la2":30.254,"lo1":-89.0895,"lo2":-89.0444,"dy":0.0017,"dx":0.0017,"nx":28,"ny":28,"refTime":"2024-03-19T21:00:00:Z","depth":0,"parameterNumber":2,"parameterNumberName":"U-component_of_WINDS"},"data":[0,0,0,0,0,0,0,0,0,0,0,0,0,0,0,0,0,0,0,0,0,0,0,0,0,0,0,0,0,0,0,0,0,0,0,0,0,0,0,0,0,0,0,0,0,0,0,0,0,0,0,0,0,0,0,0,0,0,-0.2347,-0.2347,0,-0.2355,-0.2355,-0.2355,-0.2367,-0.2367,-0.2367,-0.2367,-0.2375,-0.2375,-0.2375,0,0,0,0,0,0,0,0,0,0,0,0,0,-0.2343,-0.2343,-0.2347,-0.2347,-0.2348,-0.2355,-0.2355,-0.2355,-0.2367,-0.2367,-0.2367,-0.2367,-0.2375,-0.2375,-0.2375,0,0,0,0,0,0,0,0,0,0,0,0,0,-0.2347,-0.2343,-0.2347,-0.2354,-0.2355,-0.2355,-0.2355,-0.2355,-0.2367,-0.2367,-0.2367,-0.2367,-0.2375,-0.2375,-0.2375,-0.237,0,0,-0.2375,-0.2376,0,0,0,0,0,0,0,0,-0.2347,-0.2347,-0.2353,-0.2354,-0.2354,-0.236,-0.2357,-0.236,-0.2367,-0.2362,-0.2367,-0.2368,-0.237,-0.2371,-0.2371,-0.237,-0.2371,-0.2376,-0.2376,-0.2376,-0.2376,0,0,0,0,0,0,0,-0.2346,-0.2347,-0.2351,-0.2353,-0.2354,-0.2357,-0.2358,-0.2357,-0.2364,-0.2363,-0.2363,-0.2364,-0.237,-0.2371,-0.2372,-0.2371,-0.2376,-0.2376,-0.2376,-0.2376,-0.2366,-0.2366,0,0,0,0,0,0,-0.2345,-0.2347,-0.235,-0.2351,-0.2351,-0.2357,-0.2358,-0.2358,-0.2364,-0.2366,-0.2364,-0.2365,-0.2371,-0.2372,-0.2372,-0.2367,-0.2376,-0.2376,-0.2376,-0.2367,-0.2366,-0.2366,0,0,0,0,0,0,-0.2345,-0.2345,-0.235,-0.2349,-0.235,-0.2356,-0.2357,-0.2358,-0.2359,-0.2365,-0.2367,-0.2363,-0.2371,-0.2372,-0.2371,-0.2367,-0.2376,-0.2376,-0.2367,-0.2367,-0.2366,-0.2356,0,0,0,0,0,0,-0.2345,-0.2345,-0.2343,-0.2349,-0.235,-0.2348,-0.2357,-0.2358,-0.2359,-0.236,-0.2365,-0.2366,-0.2372,-0.237,-0.2371,-0.2367,-0.2376,-0.2367,-0.2367,-0.2366,-0.2356,-0.2355,-0.2354,0,0,0,0,0,-0.2344,-0.2339,-0.2343,-0.2343,-0.2347,-0.2348,-0.2349,-0.2355,-0.2359,-0.2357,-0.2361,-0.2366,-0.2367,-0.237,-0.237,-0.2367,-0.2368,-0.2367,-0.2366,-0.2357,-0.2355,-0.2354,0,0,0,0,0,0,-0.2333,-0.234,-0.2344,-0.2341,-0.2344,-0.235,-0.2348,-0.2352,-0.2354,-0.2355,-0.2362,-0.2363,-0.2361,-0.2364,-0.2367,-0.2363,-0.2368,-0.2368,-0.2361,-0.2359,-0.2358,-0.2358,-0.2376,0,0,0,0,0,-0.233,-0.233,-0.2336,-0.2333,-0.2334,-0.2341,-0.2341,-0.2346,-0.2349,-0.235,-0.2354,-0.2357,-0.2358,-0.2359,-0.236,-0.2357,-0.2358,-0.2355,-0.2353,-0.2352,-0.2352,-0.2351,-0.2349,-0.2364,-0.2364,-0.2364,0,0,-0.2324,-0.2328,-0.2328,-0.2331,-0.2334,-0.2334,-0.2342,-0.2341,-0.2341,-0.235,-0.2349,-0.2352,-0.2356,-0.2354,-0.2353,-0.2356,-0.2348,-0.2351,-0.235,-0.2351,-0.235,-0.2349,-0.2347,-0.2364,-0.2364,-0.2364,0,0,-0.2313,-0.2316,-0.2314,-0.2317,-0.2321,-0.2325,-0.2325,-0.233,-0.2333,-0.2332,-0.2339,-0.2339,-0.2341,-0.2343,-0.2345,-0.2336,-0.2341,-0.2336,-0.2329,-0.2328,-0.2327,-0.2326,-0.2324,-0.2323,-0.2335,-0.2335,-0.2335,0,-0.2306,-0.2306,-0.2312,-0.2312,-0.2313,-0.2321,-0.2319,-0.2321,-0.2326,-0.2327,-0.233,-0.2333,-0.2336,-0.2335,-0.2332,-0.2333,-0.2333,-0.2336,-0.2327,-0.2326,-0.2325,-0.2323,-0.2322,-0.2335,-0.2335,-0.2335,-0.2335,0,-0.2296,-0.2296,-0.2294,-0.2299,-0.23,-0.2298,-0.2305,-0.2305,-0.231,-0.2314,-0.2313,-0.2317,-0.232,-0.232,-0.2324,-0.2319,-0.2321,-0.2325,-0.2331,-0.2323,-0.2321,-0.232,-0.2334,-0.2334,-0.2334,-0.2334,0,0,-0.2279,-0.2287,-0.2286,-0.2288,-0.2294,-0.2294,-0.2293,-0.2296,-0.2297,-0.2299,-0.2299,-0.2301,-0.2305,-0.2307,-0.2311,-0.231,-0.2304,-0.2315,-0.2315,-0.2313,-0.23,-0.2297,-0.2296,-0.2307,-0.2307,-0.2307,-0.23,0,-0.227,-0.2269,-0.2275,-0.2273,-0.2273,-0.2281,-0.2281,-0.2284,-0.2288,-0.2289,-0.2293,-0.2294,-0.2299,-0.2301,-0.23,-0.2305,-0.2301,-0.2305,-0.2307,-0.2307,-0.2307,-0.2295,-0.2292,-0.2285,-0.2299,-0.2299,-0.2299,0,-0.2259,-0.2262,-0.226,-0.2266,-0.2266,-0.2266,-0.2269,-0.227,-0.2274,-0.2277,-0.2279,-0.2284,-0.2284,-0.229,-0.229,-0.2293,-0.2294,-0.2296,-0.2296,-0.2297,-0.2303,-0.2296,-0.2283,-0.2282,-0.2297,-0.2297,-0.2297,0,-0.2248,-0.225,-0.225,-0.2251,-0.2258,-0.2258,-0.2261,-0.2265,-0.2266,-0.2269,-0.227,-0.2273,-0.2275,-0.2277,-0.2283,-0.2286,-0.2283,-0.2288,-0.2286,-0.2285,-0.2285,-0.2285,-0.2273,-0.2285,-0.2285,-0.2285,-0.2285,0,-0.2237,-0.2236,-0.2245,-0.2244,-0.2243,-0.225,-0.2249,-0.2252,-0.2256,-0.2257,-0.2264,-0.2264,-0.2272,-0.2273,-0.2278,-0.2278,-0.2278,-0.2281,-0.2282,-0.2281,-0.2281,-0.2282,-0.2283,-0.2284,-0.2285,-0.2285,-0.2285,0,-0.2224,-0.223,-0.223,-0.2237,-0.2238,-0.2237,-0.2243,-0.2243,-0.2247,-0.2248,-0.2249,-0.2256,-0.2258,-0.2264,-0.2267,-0.2271,-0.227,-0.2272,-0.2268,-0.2269,-0.2266,-0.2267,-0.2255,-0.2254,-0.2266,-0.2266,-0.2266,0,-0.2218,-0.2217,-0.2224,-0.2225,-0.2227,-0.2229,-0.223,-0.2237,-0.2238,-0.2243,-0.2243,-0.2246,-0.2248,-0.2251,-0.2257,-0.226,-0.2262,-0.2258,-0.2263,-0.2261,-0.2263,-0.2263,-0.2264,-0.2257,-0.2257,-0.2257,-0.2257,0,-0.2206,-0.2209,-0.2211,-0.2214,-0.2216,-0.2219,-0.2222,-0.2222,-0.223,-0.2231,-0.2234,-0.2236,-0.224,-0.2242,-0.2246,-0.2249,-0.2254,-0.2255,-0.2255,-0.2253,-0.2252,-0.2253,-0.2266,-0.2255,-0.2255,-0.2256,-0.2256,-0.2256,-0.2196,-0.2196,-0.2201,-0.2203,-0.2206,-0.2209,-0.221,-0.2215,-0.2217,-0.2221,-0.2224,-0.2226,-0.2231,-0.2237,-0.2239,-0.2241,-0.2244,-0.2243,-0.2243,-0.2243,-0.2243,-0.2251,-0.2242,-0.2242,-0.2242,-0.2242,-0.2242,0,-0.2185,-0.2189,-0.2191,-0.2195,-0.2197,-0.2202,-0.2206,-0.2207,-0.2209,-0.2213,-0.2215,-0.2218,-0.2221,-0.2227,-0.223,-0.223,-0.2233,-0.2231,-0.2231,-0.2232,-0.224,-0.224,-0.2229,-0.2229,-0.2229,-0.2229,-0.2229,-0.2229,-0.218,-0.218,-0.2184,-0.2186,-0.2189,-0.2192,-0.2194,-0.2197,-0.22,-0.2203,-0.2205,-0.2209,-0.2214,-0.2218,-0.222,-0.2222,-0.2223,-0.2221,-0.2223,-0.223,-0.2232,-0.2233,-0.2233,-0.2221,-0.2221,-0.2216,-0.2216,-0.2216]},{"header":{"parameterUnit":"m.s-1","parameterCategory":1,"la1":30.2991,"la2":30.254,"lo1":-89.0895,"lo2":-89.0444,"dy":0.0017,"dx":0.0017,"nx":28,"ny":28,"refTime":"2024-03-19T21:00:00:Z","depth":0,"parameterNumber":3,"parameterNumberName":"V-component_of_WINDS"},"data":[0,0,0,0,0,0,0,0,0,0,0,0,0,0,0,0,0,0,0,0,0,0,0,0,0,0,0,0,0,0,0,0,0,0,0,0,0,0,0,0,0,0,0,0,0,0,0,0,0,0,0,0,0,0,0,0,0,0,-0.7101,-0.7101,0,-0.7107,-0.7107,-0.7107,-0.7141,-0.7142,-0.7142,-0.7143,-0.7147,-0.7147,-0.7146,0,0,0,0,0,0,0,0,0,0,0,0,0,-0.712,-0.7119,-0.7101,-0.7101,-0.7101,-0.7107,-0.7107,-0.7107,-0.7141,-0.7142,-0.7143,-0.7143,-0.7148,-0.7147,-0.7146,0,0,0,0,0,0,0,0,0,0,0,0,0,-0.7117,-0.7119,-0.7101,-0.7119,-0.7121,-0.7107,-0.7107,-0.7107,-0.714,-0.7142,-0.7143,-0.7144,-0.7148,-0.7147,-0.7146,-0.7115,0,0,-0.7143,-0.7143,0,0,0,0,0,0,0,0,-0.7117,-0.7116,-0.7116,-0.7118,-0.712,-0.7124,-0.7115,-0.711,-0.714,-0.7133,-0.7143,-0.7145,-0.7139,-0.7138,-0.7137,-0.7115,-0.7115,-0.7143,-0.7142,-0.7142,-0.7142,0,0,0,0,0,0,0,-0.7117,-0.7116,-0.7103,-0.7116,-0.7118,-0.7126,-0.7127,-0.7114,-0.7129,-0.7134,-0.7136,-0.7136,-0.714,-0.7138,-0.7137,-0.7116,-0.7143,-0.7142,-0.7141,-0.7141,-0.7069,-0.7068,0,0,0,0,0,0,-0.7115,-0.7116,-0.7103,-0.7104,-0.7121,-0.7125,-0.7126,-0.7121,-0.7129,-0.7131,-0.7135,-0.7138,-0.7139,-0.7138,-0.7137,-0.7102,-0.7142,-0.7141,-0.714,-0.7071,-0.7069,-0.7068,0,0,0,0,0,0,-0.7116,-0.7114,-0.7103,-0.7111,-0.711,-0.7123,-0.7118,-0.7121,-0.7119,-0.713,-0.7133,-0.713,-0.714,-0.7139,-0.7121,-0.7102,-0.714,-0.714,-0.7072,-0.707,-0.7068,-0.703,0,0,0,0,0,0,-0.7116,-0.7114,-0.7102,-0.711,-0.7109,-0.7086,-0.7117,-0.712,-0.7117,-0.7121,-0.7126,-0.7128,-0.7141,-0.7122,-0.712,-0.7102,-0.7139,-0.7074,-0.7071,-0.7069,-0.7033,-0.7027,-0.7022,0,0,0,0,0,-0.7116,-0.7091,-0.7101,-0.71,-0.7095,-0.7085,-0.7085,-0.7099,-0.7116,-0.7104,-0.7111,-0.7128,-0.7105,-0.712,-0.7117,-0.7099,-0.7075,-0.7072,-0.7069,-0.7036,-0.7028,-0.7022,0,0,0,0,0,0,-0.7079,-0.7092,-0.7104,-0.708,-0.7081,-0.7091,-0.7077,-0.7091,-0.7087,-0.7091,-0.7109,-0.711,-0.7089,-0.7092,-0.7109,-0.707,-0.7093,-0.7089,-0.7068,-0.7061,-0.7056,-0.7055,-0.7138,0,0,0,0,0,-0.7069,-0.706,-0.7071,-0.7049,-0.7049,-0.7063,-0.7059,-0.707,-0.7072,-0.7072,-0.7079,-0.7079,-0.7072,-0.7067,-0.7061,-0.7034,-0.7036,-0.702,-0.7015,-0.701,-0.7007,-0.6993,-0.6986,-0.7058,-0.7058,-0.7058,0,0,-0.7046,-0.7052,-0.7045,-0.7042,-0.7044,-0.7034,-0.7063,-0.7051,-0.7044,-0.7071,-0.7054,-0.7058,-0.706,-0.7038,-0.7028,-0.704,-0.6987,-0.7007,-0.7003,-0.7002,-0.6989,-0.6982,-0.6976,-0.7056,-0.7056,-0.7057,0,0,-0.7,-0.7003,-0.6985,-0.6987,-0.6991,-0.7,-0.6996,-0.7003,-0.7007,-0.6991,-0.7011,-0.7003,-0.699,-0.6991,-0.699,-0.6944,-0.696,-0.6942,-0.6913,-0.6899,-0.6893,-0.6888,-0.6872,-0.6866,-0.6939,-0.6939,-0.6938,0,-0.6971,-0.6957,-0.6974,-0.6961,-0.6959,-0.6984,-0.6966,-0.6967,-0.6968,-0.6966,-0.6979,-0.6964,-0.6967,-0.6945,-0.6934,-0.6933,-0.6928,-0.6941,-0.6893,-0.6888,-0.6883,-0.6868,-0.6862,-0.6936,-0.6937,-0.6937,-0.6937,0,-0.6921,-0.6911,-0.6896,-0.6897,-0.6894,-0.6878,-0.6893,-0.6887,-0.6899,-0.6907,-0.689,-0.6895,-0.6891,-0.6887,-0.6898,-0.6866,-0.6873,-0.689,-0.6913,-0.6874,-0.686,-0.6854,-0.6933,-0.6934,-0.6935,-0.6935,0,0,-0.685,-0.6862,-0.6856,-0.6857,-0.6863,-0.6856,-0.6841,-0.6838,-0.6832,-0.6832,-0.6821,-0.681,-0.6825,-0.6824,-0.6836,-0.6823,-0.6787,-0.6841,-0.6841,-0.683,-0.6752,-0.6739,-0.6732,-0.6798,-0.6797,-0.6796,-0.6752,0,-0.6805,-0.6782,-0.6798,-0.6771,-0.6763,-0.6787,-0.6774,-0.6776,-0.6784,-0.6777,-0.6785,-0.6777,-0.6798,-0.6797,-0.6786,-0.6794,-0.6771,-0.6797,-0.6786,-0.6786,-0.6784,-0.6725,-0.6711,-0.667,-0.6746,-0.6745,-0.6745,0,-0.675,-0.6748,-0.6721,-0.673,-0.6726,-0.6715,-0.6713,-0.6707,-0.671,-0.6716,-0.6715,-0.673,-0.6716,-0.674,-0.6722,-0.6739,-0.6735,-0.6739,-0.6737,-0.6736,-0.6762,-0.6722,-0.6657,-0.665,-0.6736,-0.6737,-0.6738,0,-0.67,-0.6692,-0.6674,-0.6675,-0.6684,-0.6675,-0.6679,-0.6683,-0.668,-0.6678,-0.6677,-0.6673,-0.6671,-0.6668,-0.6682,-0.6698,-0.6661,-0.6686,-0.6666,-0.6665,-0.6656,-0.6656,-0.6589,-0.6655,-0.6655,-0.6655,-0.6655,0,-0.6648,-0.6631,-0.6652,-0.6642,-0.6623,-0.6641,-0.6622,-0.6628,-0.6632,-0.6623,-0.6643,-0.6634,-0.6653,-0.6646,-0.6657,-0.664,-0.6639,-0.6643,-0.6646,-0.6641,-0.664,-0.6638,-0.6641,-0.6654,-0.6654,-0.6654,-0.6655,0,-0.6589,-0.6603,-0.6586,-0.6597,-0.6599,-0.6585,-0.6594,-0.6584,-0.6594,-0.6582,-0.658,-0.6594,-0.6587,-0.66,-0.6594,-0.6602,-0.6578,-0.6585,-0.6577,-0.6579,-0.6557,-0.6559,-0.6486,-0.6477,-0.6549,-0.6548,-0.6547,0,-0.6555,-0.6542,-0.6552,-0.6547,-0.655,-0.6543,-0.654,-0.6558,-0.6554,-0.6557,-0.6547,-0.6541,-0.6538,-0.6525,-0.6534,-0.653,-0.6538,-0.6512,-0.6537,-0.6532,-0.6537,-0.6537,-0.6536,-0.6507,-0.6506,-0.6505,-0.6505,0,-0.6492,-0.65,-0.6495,-0.6493,-0.649,-0.6489,-0.6489,-0.6484,-0.6503,-0.6498,-0.6491,-0.6488,-0.6483,-0.6477,-0.6475,-0.6479,-0.6494,-0.6497,-0.6492,-0.6486,-0.6481,-0.6483,-0.6562,-0.6498,-0.6499,-0.6499,-0.65,-0.65,-0.6444,-0.6434,-0.6439,-0.6434,-0.6436,-0.6437,-0.6428,-0.6437,-0.6432,-0.6429,-0.644,-0.643,-0.6434,-0.6433,-0.6435,-0.6428,-0.6439,-0.6432,-0.643,-0.6427,-0.6424,-0.6483,-0.6428,-0.6428,-0.6428,-0.6428,-0.6428,0,-0.6382,-0.6387,-0.6382,-0.6382,-0.6378,-0.6394,-0.6396,-0.6391,-0.6383,-0.6385,-0.6382,-0.6374,-0.6368,-0.6378,-0.6374,-0.6366,-0.6373,-0.6364,-0.6365,-0.6365,-0.6414,-0.6419,-0.6359,-0.6359,-0.6359,-0.6359,-0.6359,-0.6359,-0.6349,-0.6333,-0.6342,-0.6327,-0.6332,-0.6323,-0.6323,-0.6323,-0.6325,-0.6316,-0.6312,-0.6318,-0.6323,-0.632,-0.6316,-0.6319,-0.6316,-0.6305,-0.631,-0.6355,-0.6362,-0.6368,-0.6373,-0.6304,-0.6304,-0.6262,-0.6261,-0.6261]}]]